Location: Cahoon Acres
(40.8736°N, 111.8994°W)
Time: 10:29:03
(UTC+00:00)

SR - Pass Details

Date: 10 June 2020
Orbit: 583 x 872 km, 66.7° (Epoch: 03 July)

Event Time Altitude Azimuth Distance (km) Brightness Sun altitude
Rises 20:14:54 0° 222° (SW) 3,273 ? 69.6°
Reaches altitude 10° 20:17:28 10° 227° (SW) 2,303 ? 69.3°
Maximum altitude 20:22:34 51° 303° (WNW) 906 ? 68.8°
Drops below altitude 10° 20:27:18 10° 20° (NNE) 2,127 ? 68.2°
Sets 20:29:35 0° 25° (NNE) 3,000 ? 67.9°
